TITAN 34B R/B, 12446

Orbit data source: Space-Track

TITAN 34B R/B, 12446 is space debris in HEO originally from a launch on Fri, 24 Apr 1981 UTC launched from the Air Force Western Test Range (AFWTR). Debris objects in space refer to the collection of defunct objects orbiting the Earth. Examples of debris include non-operational satellites, rocket bodies, and fragments generated from explosions, collisions, or faulty payload assembly.

Loading next visibility...
Identifier
12446, 1981-038B
Orbit
HEO
Last TLE update
17 hours ago
Origin
Manufacturer
LMSC
Mission
Spacecraft
Bus & Motor
AGENA D, Unknown motor
Mass
600 kg wet, 600 kg dry
Launch date (UTC)
1981-04-24 (44 years ago)
Launch vehicle
Unknown
Launch site
Air Force Western Test Range (AFWTR)
Object type
Payload
Rocket body
Debris
Shape & HBR
Cyl, 6.3 m
Radar Cross Section
8.306 m², Large (>1 m²)

Expand to show TLE details & history

TLE from 17 hours ago
0 TITAN 34B R/B
1 12446U 81038B   25181.71088581  .00003582  00000-0  70606-3 0  9992
2 12446  63.0945  77.7451 5612012 287.2295  20.9280  4.62935885 79624
Epoch: 2025-06-30T17:03Z
TLE epoch observation values (Epoch: 2025-06-30T17:03:40.534Z)
Latitude
-0.00006°
Longitude
-97.17917°
Altitude
2,569.042 km
Speed
7.931 km/s
True Right ascension
05h 11m 01s
True Declination
0° 00' 00"
Sunlit
Object was in daylight at epoch
Visualization orbit readout
Latitude
62.02991°
Longitude
-25.00001°
Altitude
14,772.079 km
Speed
3.392 km/s
Apparent Right ascension
09h 50m 54s
Apparent Declination
44° 34' 30"
Sunlit
Object is in daylight
Visualization observer readout
Local Sidereal Time
21:33:00
Azimuth
356.799° N
Elevation
-5.413°
Doppler factor
1
Orbital elements
Apogee altitude
17,362.131 km
Perigee altitude
294.418 km
Semi-major axis
15,206.412 km
Eccentricity
0.5612
Inclination
63.0945°
RAAN
77.7451°
Arg. of periapsis
287.2295°
True anomaly
Unknown
Mean anomaly
20.928°
Eccentric anomaly
Unknown
Mean motion
1.15745 °/min
Orbital period
311.03 mins
BSTAR
0.00070606
Loading maneuver chart data...
Loading SW <> Apogee altitude chart data...
Loading historical data...
Loading historical data...
Loading historical data...
Loading historical data...
Loading historical data...
Loading historical data...
Loading historical data...

TITAN 34B R/B Visibility forecast

Observer location: undefined°, undefined°

Span
Click to sort rows by Start time (UTC) header in descending order
Start Az.
Max El. time (UTC)
Max El. Az.
Max El.
End time (UTC)
End Az.
41 mins2025-07-01 14:19:38.812Z58.504° ENE2025-07-01 14:36:38.812Z44.234° NE11.817°2025-07-01 15:00:38.812Z31.805° NE
200 mins2025-07-01 19:02:38.812Z213.584° SW2025-07-01 19:27:38.812Z309.264° NW44.895°2025-07-01 22:22:38.812Z62.077° ENE
226 mins2025-07-02 00:44:38.812Z303.961° NW2025-07-02 03:27:38.812Z71.746° E44.914°2025-07-02 04:30:38.812Z157.439° SSE
130 mins2025-07-02 06:58:38.812Z331.738° NNW2025-07-02 08:08:38.812Z310.22° NW19.696°2025-07-02 09:08:38.812Z279.449° WNW
|